EN

Hourly Weather Altynovka

Today, 18 January, Monday

Time Temperature Precipitation Wind Pressure Humidity
00:00 -24°C° 0 mm 3 mps 756 mmHg 87%
01:00 -23°C° 0 mm 3 mps 755 mmHg 88%
02:00 -21°C° 0 mm 2 mps 755 mmHg 89%
03:00 -20°C° 0 mm 2 mps 754 mmHg 90%
04:00 -21°C° 0 mm 2 mps 754 mmHg 90%
05:00 -21°C° 0 mm 2 mps 754 mmHg 89%
06:00 -21°C° 0 mm 2 mps 754 mmHg 88%
07:00 -21°C° 0 mm 2 mps 753 mmHg 88%
08:00 -20°C° 0 mm 2 mps 753 mmHg 88%
09:00 -17°C° 0 mm 1 mps 753 mmHg 88%
10:00 -18°C° 0 mm 2 mps 753 mmHg 86%
11:00 -16°C° 0 mm 2 mps 753 mmHg 84%
12:00 -16°C° 0 mm 3 mps 753 mmHg 82%
13:00 -16°C° 0.1 mm 3 mps 752 mmHg 84%
14:00 -17°C° 0.1 mm 4 mps 752 mmHg 87%
15:00 -17°C° 0 mm 4 mps 752 mmHg 91%
16:00 -18°C° 0.1 mm 4 mps 753 mmHg 92%
17:00 -20°C° 0.1 mm 5 mps 754 mmHg 93%
18:00 -21°C° 0.1 mm 5 mps 755 mmHg 94%
19:00 -24°C° 0.1 mm 6 mps 756 mmHg 92%
20:00 -26°C° 0.1 mm 6 mps 757 mmHg 89%
21:00 -27°C° 0.1 mm 7 mps 758 mmHg 87%
22:00 -29°C° 0 mm 6 mps 759 mmHg 87%
23:00 -29°C° 0 mm 5 mps 760 mmHg 86%

Tomorrow, 19 January, Tuesday

Time Temperature Precipitation Wind Pressure Humidity
00:00 -30°C° 0 mm 4 mps 761 mmHg 86%
01:00 -31°C° 0 mm 3 mps 761 mmHg 85%
02:00 -32°C° 0 mm 3 mps 762 mmHg 85%
03:00 -31°C° 0 mm 2 mps 762 mmHg 85%
04:00 -32°C° 0 mm 2 mps 763 mmHg 84%
05:00 -31°C° 0 mm 1 mps 763 mmHg 83%
06:00 -31°C° 0 mm 1 mps 764 mmHg 82%
07:00 -31°C° 0 mm 1 mps 764 mmHg 82%
08:00 -30°C° 0 mm 1 mps 765 mmHg 82%
09:00 -29°C° 0 mm 1 mps 765 mmHg 82%
10:00 -28°C° 0 mm 1 mps 766 mmHg 80%
11:00 -28°C° 0 mm 2 mps 766 mmHg 78%
12:00 -26°C° 0 mm 2 mps 767 mmHg 77%
13:00 -26°C° 0 mm 2 mps 766 mmHg 77%
14:00 -25°C° 0 mm 2 mps 766 mmHg 77%
15:00 -24°C° 0 mm 2 mps 766 mmHg 78%
16:00 -26°C° 0 mm 2 mps 766 mmHg 79%
17:00 -27°C° 0 mm 2 mps 767 mmHg 80%
18:00 -28°C° 0 mm 2 mps 768 mmHg 81%
19:00 -28°C° 0 mm 2 mps 768 mmHg 80%
20:00 -28°C° 0 mm 2 mps 768 mmHg 80%
21:00 -29°C° 0 mm 2 mps 767 mmHg 79%
22:00 -29°C° 0 mm 2 mps 767 mmHg 79%
23:00 -29°C° 0 mm 2 mps 767 mmHg 79%

Day after tomorrow, 20 January, Wednesday

Time Temperature Precipitation Wind Pressure Humidity
00:00 -29°C° 0 mm 2 mps 767 mmHg 79%
01:00 -29°C° 0 mm 2 mps 767 mmHg 79%
02:00 -28°C° 0 mm 2 mps 767 mmHg 78%
03:00 -28°C° 0 mm 2 mps 767 mmHg 78%
04:00 -28°C° 0 mm 2 mps 767 mmHg 77%
05:00 -28°C° 0 mm 2 mps 767 mmHg 76%
06:00 -28°C° 0 mm 2 mps 767 mmHg 74%
07:00 -27°C° 0 mm 2 mps 767 mmHg 75%
08:00 -26°C° 0 mm 2 mps 766 mmHg 76%
09:00 -25°C° 0 mm 2 mps 766 mmHg 77%
10:00 -23°C° 0 mm 2 mps 766 mmHg 76%
11:00 -19°C° 0 mm 2 mps 765 mmHg 75%
12:00 -17°C° 0 mm 2 mps 765 mmHg 73%
13:00 -15°C° 0 mm 2 mps 764 mmHg 76%
14:00 -12°C° 0 mm 1 mps 763 mmHg 79%
15:00 -11°C° 0 mm 1 mps 762 mmHg 81%
16:00 -12°C° 0 mm 1 mps 762 mmHg 83%
17:00 -13°C° 0 mm 1 mps 761 mmHg 84%
18:00 -14°C° 0 mm 1 mps 761 mmHg 86%
19:00 -15°C° 0 mm 2 mps 761 mmHg 86%
20:00 -15°C° 0 mm 3 mps 760 mmHg 86%
21:00 -14°C° 0 mm 3 mps 760 mmHg 86%
22:00 -15°C° 0 mm 4 mps 760 mmHg 87%
23:00 -15°C° 0 mm 4 mps 759 mmHg 87%

21 January, Thursday

Time Temperature Precipitation Wind Pressure Humidity
00:00 -14°C° 0 mm 5 mps 759 mmHg 88%
01:00 -14°C° 0 mm 5 mps 759 mmHg 89%
02:00 -14°C° 0 mm 4 mps 759 mmHg 89%
03:00 -14°C° 0 mm 4 mps 758 mmHg 90%
04:00 -14°C° 0 mm 4 mps 759 mmHg 90%
05:00 -14°C° 0 mm 4 mps 759 mmHg 89%
06:00 -14°C° 0 mm 4 mps 759 mmHg 89%
07:00 -13°C° 0 mm 3 mps 759 mmHg 89%
08:00 -12°C° 0 mm 2 mps 760 mmHg 89%
09:00 -10°C° 0 mm 1 mps 760 mmHg 88%
10:00 -8°C° 0 mm 1 mps 760 mmHg 87%
11:00 -7°C° 0 mm 1 mps 760 mmHg 86%
12:00 -6°C° 0 mm 1 mps 760 mmHg 85%
13:00 -6°C° 0 mm 1 mps 759 mmHg 85%
14:00 -6°C° 0 mm 1 mps 759 mmHg 86%
15:00 -8°C° 0 mm 2 mps 758 mmHg 87%
16:00 -8°C° 0 mm 1 mps 758 mmHg 88%
17:00 -10°C° 0 mm 1 mps 758 mmHg 88%
18:00 -11°C° 0 mm 1 mps 758 mmHg 89%
19:00 -11°C° 0 mm 1 mps 758 mmHg 90%
20:00 -12°C° 0 mm 1 mps 758 mmHg 90%
21:00 -12°C° 0 mm 1 mps 758 mmHg 90%
22:00 -12°C° 0 mm 1 mps 757 mmHg 92%
23:00 -12°C° 0 mm 1 mps 757 mmHg 93%

22 January, Friday

Time Temperature Precipitation Wind Pressure Humidity
00:00 -14°C° 0 mm 2 mps 756 mmHg 94%
01:00 -15°C° 0.1 mm 2 mps 756 mmHg 95%
02:00 -15°C° 0.1 mm 2 mps 756 mmHg 95%
03:00 -17°C° 0.1 mm 3 mps 756 mmHg 96%
04:00 -17°C° 0.2 mm 3 mps 756 mmHg 96%
05:00 -17°C° 0.2 mm 3 mps 756 mmHg 95%
06:00 -18°C° 0.2 mm 3 mps 756 mmHg 95%
07:00 -18°C° 0.1 mm 3 mps 757 mmHg 95%
08:00 -18°C° 0.1 mm 3 mps 758 mmHg 95%
09:00 -19°C° 0.1 mm 3 mps 759 mmHg 94%
10:00 -18°C° 0 mm 3 mps 759 mmHg 93%
11:00 -18°C° 0 mm 3 mps 760 mmHg 92%
12:00 -18°C° 0 mm 3 mps 760 mmHg 91%
13:00 -16°C° 0 mm 2 mps 760 mmHg 90%
14:00 -16°C° 0 mm 2 mps 760 mmHg 90%
15:00 -16°C° 0 mm 2 mps 761 mmHg 89%
16:00 -16°C° 0 mm 1 mps 761 mmHg 92%
17:00 -17°C° 0 mm 1 mps 762 mmHg 94%
18:00 -19°C° 0 mm 1 mps 763 mmHg 97%
19:00 -19°C° 0 mm 1 mps 763 mmHg 96%
20:00 -19°C° 0 mm 1 mps 764 mmHg 96%
21:00 -19°C° 0 mm 1 mps 765 mmHg 95%
22:00 -20°C° 0 mm 1 mps 765 mmHg 95%
23:00 -21°C° 0 mm 1 mps 766 mmHg 96%

23 January, Saturday

Time Temperature Precipitation Wind Pressure Humidity
00:00 -21°C° 0 mm 1 mps 766 mmHg 96%
01:00 -22°C° 0 mm 1 mps 767 mmHg 97%
02:00 -22°C° 0 mm 1 mps 767 mmHg 98%
03:00 -23°C° 0 mm 1 mps 767 mmHg 98%
04:00 -23°C° 0 mm 1 mps 767 mmHg 98%
05:00 -23°C° 0 mm 1 mps 767 mmHg 98%
06:00 -24°C° 0 mm 1 mps 768 mmHg 98%
07:00 -23°C° 0 mm 0 mps 768 mmHg 97%
08:00 -22°C° 0 mm 0 mps 768 mmHg 95%
09:00 -22°C° 0 mm 0 mps 769 mmHg 94%
10:00 -20°C° 0 mm 0 mps 768 mmHg 90%
11:00 -19°C° 0 mm 0 mps 768 mmHg 86%
12:00 -17°C° 0 mm 1 mps 767 mmHg 83%
13:00 -17°C° 0 mm 1 mps 767 mmHg 83%
14:00 -16°C° 0 mm 1 mps 766 mmHg 83%
15:00 -16°C° 0 mm 1 mps 766 mmHg 84%
16:00 -18°C° 0 mm 1 mps 766 mmHg 85%
17:00 -19°C° 0 mm 1 mps 766 mmHg 87%
18:00 -21°C° 0 mm 1 mps 766 mmHg 89%
19:00 -21°C° 0 mm 1 mps 767 mmHg 88%
20:00 -21°C° 0 mm 1 mps 767 mmHg 87%
21:00 -21°C° 0 mm 0 mps 767 mmHg 86%
22:00 -22°C° 0 mm 0 mps 767 mmHg 86%
23:00 -22°C° 0 mm 0 mps 767 mmHg 85%
Show more